sat.trackr.live / text

‹ back to catalog

STARLINK-34317

NORAD 64162 · 2025-112S

PAYLOAD ACTIVE UNKNOWN

§ Identity

Operator
Country
US
Launch date
2025-05-27
Launch site
AFWTR
Launch vehicle
Mass (kg)
RCS (m²)

Purposes: comms

External: N2YO · Heavens-Above · Gunter

§ Orbital elements

Epoch: 2026-09-20T01:41:26.244096Z

Period
93.91 min
Inclination
97.2845°
Eccentricity
0.0000905
Mean motion
15.33448937 rev/d
Perigee alt
464.9 km
Apogee alt
466.2 km
Semi-major
6,843.7 km
B*
2.5885e-4
RAAN
310.1697°
Arg perigee
101.1217°
Mean anomaly
259.0128°
Rev number
7,268

§ Raw data

STARLINK-343171 64162U 25112S   26263.07044264  .00008292  00000+0  25885-3 0  99972 64162  97.2845 310.1697 0000905 101.1217 259.0128 15.33448937 72687

JSON: /api/v1/satellites/64162 · /tle

For live sub-satellite position, see the globe view (requires WebGL).

§ Visibility from observer

Set your observer location to see the next 7 days of passes ≥ 10°. The values pass through the URL so the page stays shareable.

No JS? Fill the form by hand. The geolocation button needs JavaScript.